This is the latest recevied weather packets stored in our database for station/object W7BTL. If no packets are shown the sender has not sent any weather packets the latest 10 day(s).
| Time | Temp. | Humidity | Pressure | Rain* | Wind** | Luminosity | Snow |
|---|---|---|---|---|---|---|---|
| 1788054074 | 27.22° C | 63% | 1009.2 hPa | 0 mm | - | 35 W/m² | - |
| 1788053769 | 27.78° C | 60% | 1009.3 hPa | 0 mm | - | 40 W/m² | - |
| 1788053465 | 28.33° C | 60% | 1009.2 hPa | 0 mm | - | 48 W/m² | - |
| 1788053165 | 28.89° C | 60% | 1009.5 hPa | 0 mm | - | 60 W/m² | - |
| 1788052861 | 28.89° C | 61% | 1009.4 hPa | 0 mm | - | 69 W/m² | - |
| 1788052561 | 29.44° C | 58% | 1009.4 hPa | 0 mm | - | 77 W/m² | - |
| 1788052256 | 29.44° C | 57% | 1009.1 hPa | 0 mm | - | 88 W/m² | - |
| 1788051951 | 30° C | 54% | 1009.2 hPa | 0 mm | - | 98 W/m² | - |
| 1788051647 | 30° C | 53% | 1008.9 hPa | 0 mm | - | 108 W/m² | - |
| 1788051344 | 30.56° C | 53% | 1008.9 hPa | 0 mm | - | 122 W/m² | - |
| 1788051043 | 30.56° C | 54% | 1009.1 hPa | 0 mm | - | 134 W/m² | - |
| 1788050738 | 30.56° C | 53% | 1009 hPa | 0 mm | - | 150 W/m² | - |
| 1788050438 | 31.11° C | 53% | 1008.9 hPa | 0 mm | - | 165 W/m² | - |
| 1788050133 | 31.11° C | 53% | 1008.8 hPa | 0 mm | - | 178 W/m² | - |
| 1788049828 | 31.11° C | 52% | 1009.1 hPa | 0 mm | - | 197 W/m² | - |
| 1788049521 | 31.67° C | 51% | 1009.1 hPa | 0 mm | - | 216 W/m² | - |
| 1788049217 | 31.67° C | 50% | 1009.2 hPa | 0 mm | - | 227 W/m² | - |
| 1788048911 | 32.22° C | 49% | 1009 hPa | 0 mm | - | 251 W/m² | - |
| 1788048607 | 32.22° C | 48% | 1009 hPa | 0 mm | - | 271 W/m² | - |
| 1788048304 | 32.78° C | 48% | 1009.1 hPa | 0 mm | - | 289 W/m² | - |
| 1788048002 | 32.78° C | 47% | 1009.1 hPa | 0 mm | - | 311 W/m² | - |
| 1788047695 | 32.78° C | 47% | 1009.2 hPa | 0 mm | - | 334 W/m² | - |
| 1788047395 | 32.78° C | 47% | 1008.8 hPa | 0 mm | - | 346 W/m² | - |
| 1788047090 | 33.33° C | 47% | 1009.1 hPa | 0 mm | - | 376 W/m² | - |
| 1788046786 | 33.33° C | 46% | 1009 hPa | 0 mm | - | 397 W/m² | - |
* Rain latest hour (hover to see other rain measurements)
** Current wind speed in m/s (hover to see current wind gust speed)